| time (UTC) | temp F | wind direction | speed MPH | gust MPH | rain 1hr in | rain 24hr in | rain mn in | humidity % | barometer mb |
| 20260903074533 | 51 | 142 | 1.0 | 3.0 | 0.00 | 0.37 | 0.00 | 96 | 1011.7 |
| 20260903073109 | 52 | 112 | 1.0 | 4.0 | 0.00 | 0.37 | 0.00 | 96 | 1011.5 |
| 20260903064535 | 53 | 200 | 2.0 | 4.0 | 0.00 | 0.37 | 0.37 | 96 | 1011.5 |
| 20260903063110 | 53 | 193 | 3.0 | 6.0 | 0.00 | 0.37 | 0.37 | 96 | 1011.6 |
| 20260903060035 | 54 | 181 | 0.0 | 2.0 | 0.00 | 0.37 | 0.37 | 95 | 1011.6 |
| 20260903054533 | 54 | 213 | 1.0 | 4.0 | 0.00 | 0.37 | 0.37 | 95 | 1011.5 |
| 20260903053032 | 54 | 232 | 0.0 | 3.0 | 0.00 | 0.37 | 0.37 | 94 | 1011.4 |
| 20260903051533 | 54 | 222 | 1.0 | 4.0 | 0.00 | 0.37 | 0.37 | 93 | 1011.3 |
| 20260903050033 | 54 | 152 | 0.0 | 3.0 | 0.00 | 0.37 | 0.37 | 92 | 1011.2 |
| 20260903044530 | 55 | 266 | 0.0 | 3.0 | 0.00 | 0.37 | 0.37 | 91 | 1011.1 |
| 20260903043109 | 55 | 209 | 1.0 | 6.0 | 0.00 | 0.37 | 0.37 | 89 | 1010.9 |
| 20260903041535 | 56 | 231 | 3.0 | 8.0 | 0.00 | 0.37 | 0.37 | 88 | 1010.6 |
| 20260903040034 | 56 | 257 | 6.0 | 13.0 | 0.00 | 0.37 | 0.37 | 88 | 1010.4 |
| 20260903034535 | 57 | 277 | 6.0 | 10.0 | 0.00 | 0.37 | 0.37 | 90 | 1010.3 |
| 20260903033032 | 57 | 264 | 3.0 | 9.0 | 0.03 | 0.37 | 0.37 | 91 | 1010.3 |
| 20260903031537 | 57 | 258 | 4.0 | 14.0 | 0.06 | 0.37 | 0.37 | 90 | 1010.1 |
| 20260903030037 | 57 | 290 | 5.0 | 11.0 | 0.13 | 0.37 | 0.37 | 91 | 1009.8 |
| 20260903024537 | 57 | 285 | 2.0 | 7.0 | 0.21 | 0.37 | 0.34 | 92 | 1010.1 |
| 20260903021533 | 58 | 260 | 3.0 | 9.0 | 0.15 | 0.31 | 0.24 | 94 | 1009.8 |
| 20260903020030 | 59 | 354 | 1.0 | 5.0 | 0.08 | 0.24 | 0.16 | 93 | 1009.6 |
| 20260903014530 | 59 | 67 | 0.0 | 1.0 | 0.01 | 0.16 | 0.16 | 93 | 1009.4 |
| 20260903013031 | 59 | 67 | 0.0 | 0.0 | 0.02 | 0.16 | 0.16 | 93 | 1009.4 |
| 20260903011532 | 59 | 63 | 0.0 | 4.0 | 0.03 | 0.16 | 0.16 | 93 | 1009.3 |
| 20260903010036 | 59 | 17 | 0.0 | 2.0 | 0.04 | 0.16 | 0.15 | 92 | 1009.4 |
| 20260903004537 | 59 | 22 | 0.0 | 2.0 | 0.04 | 0.15 | 0.14 | 91 | 1009.5 |
| 20260903003034 | 59 | 7 | 0.0 | 0.0 | 0.03 | 0.14 | 0.13 | 90 | 1009.5 |
| 20260903001530 | 59 | 349 | 0.0 | 3.0 | 0.03 | 0.13 | 0.12 | 90 | 1009.5 |
| 20260903000031 | 59 | 346 | 0.0 | 3.0 | 0.02 | 0.12 | 0.11 | 89 | 1009.4 |
| 20260902234650 | 60 | 16 | 1.0 | 4.0 | 0.01 | 0.11 | 0.11 | 88 | 1009.4 |
| 20260902233153 | 60 | 1 | 1.0 | 4.0 | 0.01 | 0.11 | 0.10 | 87 | 1009.5 |
| 20260902231535 | 60 | 349 | 2.0 | 6.0 | 0.01 | 0.10 | 0.10 | 88 | 1009.6 |
| 20260902230038 | 60 | 345 | 1.0 | 5.0 | 0.02 | 0.10 | 0.10 | 91 | 1009.7 |
| 20260902224532 | 59 | 360 | 1.0 | 4.0 | 0.03 | 0.10 | 0.10 | 91 | 1009.6 |
| 20260902223036 | 60 | 345 | 1.0 | 4.0 | 0.04 | 0.10 | 0.09 | 91 | 1009.7 |
| 20260902220034 | 60 | 332 | 1.0 | 6.0 | 0.04 | 0.08 | 0.07 | 90 | 1009.3 |
| 20260902213037 | 60 | 3 | 1.0 | 4.0 | 0.04 | 0.06 | 0.05 | 89 | 1009.2 |
| 20260902211535 | 60 | 347 | 1.0 | 5.0 | 0.04 | 0.05 | 0.04 | 88 | 1009.3 |
| 20260902204535 | 61 | 25 | 1.0 | 4.0 | 0.03 | 0.03 | 0.02 | 84 | 1009.4 |
| 20260902201535 | 61 | 351 | 0.0 | 2.0 | 0.01 | 0.01 | 0.01 | 80 | 1009.5 |
| 20260902200035 | 62 | 323 | 1.0 | 5.0 | 0.01 | 0.01 | 0.00 | 79 | 1009.5 |
| 20260902194652 | 63 | 338 | 0.0 | 3.0 | 0.00 | 0.00 | 0.00 | 74 | 1009.5 |
| 20260902191533 | 66 | 274 | 1.0 | 4.0 | 0.00 | 0.00 | 0.00 | 64 | 1009.3 |
| 20260902190029 | 65 | 310 | 1.0 | 3.0 | 0.00 | 0.00 | 0.00 | 63 | 1009.1 |
| 20260902184610 | 65 | 10 | 1.0 | 3.0 | 0.00 | 0.00 | 0.00 | 61 | 1009.0 |
| 20260902181535 | 65 | 20 | 3.0 | 6.0 | 0.00 | 0.00 | 0.00 | 61 | 1009.0 |
| 20260902180031 | 66 | 31 | 3.0 | 6.0 | 0.00 | 0.00 | 0.00 | 61 | 1009.1 |
| 20260902174535 | 66 | 2 | 3.0 | 8.0 | 0.00 | 0.00 | 0.00 | 64 | 1009.2 |
| 20260902173037 | 65 | 327 | 2.0 | 6.0 | 0.00 | 0.00 | 0.00 | 66 | 1009.3 |
| 20260902171534 | 64 | 318 | 2.0 | 6.0 | 0.00 | 0.00 | 0.00 | 65 | 1009.5 |
| 20260902170032 | 65 | 343 | 1.0 | 4.0 | 0.00 | 0.00 | 0.00 | 65 | 1009.7 |
| 20260902164530 | 64 | 277 | 1.0 | 4.0 | 0.00 | 0.00 | 0.00 | 67 | 1009.9 |
| 20260902160031 | 63 | 176 | 1.0 | 4.0 | 0.00 | 0.00 | 0.00 | 70 | 1010.6 |
| 20260902154534 | 62 | 198 | 1.0 | 4.0 | 0.00 | 0.00 | 0.00 | 72 | 1010.6 |
| 20260902151536 | 60 | 204 | 2.0 | 4.0 | 0.00 | 0.00 | 0.00 | 76 | 1010.8 |
| 20260902150034 | 60 | 171 | 2.0 | 6.0 | 0.00 | 0.00 | 0.00 | 76 | 1010.9 |
| 20260902143035 | 58 | 183 | 1.0 | 4.0 | 0.00 | 0.00 | 0.00 | 79 | 1011.3 |
| 20260902141536 | 56 | 279 | 0.0 | 4.0 | 0.00 | 0.00 | 0.00 | 81 | 1011.3 |
| 20260902140037 | 55 | 206 | 0.0 | 3.0 | 0.00 | 0.00 | 0.00 | 81 | 1011.3 |
| 20260902134535 | 56 | 197 | 2.0 | 4.0 | 0.00 | 0.00 | 0.00 | 78 | 1011.3 |
| 20260902133038 | 58 | 194 | 1.0 | 5.0 | 0.00 | 0.00 | 0.00 | 73 | 1011.4 |
| 20260902131613 | 58 | 292 | 2.0 | 6.0 | 0.00 | 0.00 | 0.00 | 72 | 1011.3 |
| 20260902130032 | 59 | 261 | 2.0 | 8.0 | 0.00 | 0.00 | 0.00 | 71 | 1011.5 |
| 20260902124538 | 59 | 282 | 3.0 | 8.0 | 0.00 | 0.00 | 0.00 | 71 | 1011.4 |
| 20260902123038 | 59 | 288 | 3.0 | 8.0 | 0.00 | 0.00 | 0.00 | 71 | 1011.5 |
| 20260902121536 | 60 | 282 | 5.0 | 9.0 | 0.00 | 0.00 | 0.00 | 71 | 1011.4 |
| 20260902120030 | 60 | 290 | 6.0 | 11.0 | 0.00 | 0.00 | 0.00 | 70 | 1011.6 |
| 20260902113036 | 60 | 281 | 6.0 | 15.0 | 0.00 | 0.00 | 0.00 | 69 | 1011.7 |
| 20260902111535 | 60 | 277 | 6.0 | 13.0 | 0.00 | 0.00 | 0.00 | 69 | 1011.7 |
| 20260902103032 | 61 | 287 | 7.0 | 14.0 | 0.00 | 0.00 | 0.00 | 72 | 1011.9 |
| 20260902101536 | 61 | 284 | 7.0 | 15.0 | 0.00 | 0.00 | 0.00 | 73 | 1012.0 |
| 20260902100037 | 61 | 280 | 8.0 | 19.0 | 0.00 | 0.00 | 0.00 | 73 | 1011.9 |
| 20260902094535 | 61 | 280 | 8.0 | 14.0 | 0.00 | 0.00 | 0.00 | 73 | 1012.0 |
| 20260902093152 | 61 | 283 | 7.0 | 16.0 | 0.00 | 0.00 | 0.00 | 73 | 1012.2 |
| 20260902091534 | 61 | 281 | 9.0 | 21.0 | 0.00 | 0.00 | 0.00 | 73 | 1012.2 |
| 20260902090031 | 60 | 281 | 8.0 | 14.0 | 0.00 | 0.00 | 0.00 | 73 | 1012.1 |
| 20260902084644 | 60 | 281 | 7.0 | 17.0 | 0.00 | 0.00 | 0.00 | 73 | 1012.1 |
| 20260902081530 | 60 | 287 | 8.0 | 18.0 | 0.00 | 0.00 | 0.00 | 74 | 1012.2 |
| 20260902080144 | 60 | 293 | 7.0 | 14.0 | 0.00 | 0.00 | 0.00 | 74 | 1012.3 |